• In France
  • List of Countries
  • For 7 days
  • Water Temperature
  • Satellite Maps
  • Weather Map
  • Weather Widgets
  • user-avatar
    Login

    Hourly Weather Phenian

    Today, 20 August, Monday

    Time Temperature Precipitation Wind Pressure Humidity
    00:00 +25°C° 0 mm 1 mps 755 mmHg 90%
    01:00 +25°C° 0 mm 1 mps 755 mmHg 91%
    02:00 +24°C° 0 mm 1 mps 755 mmHg 91%
    03:00 +24°C° 0 mm 2 mps 755 mmHg 91%
    04:00 +24°C° 0 mm 2 mps 755 mmHg 91%
    05:00 +24°C° 0 mm 2 mps 754 mmHg 91%
    06:00 +25°C° 0 mm 2 mps 754 mmHg 87%
    07:00 +26°C° 0 mm 3 mps 754 mmHg 84%
    08:00 +27°C° 0 mm 3 mps 754 mmHg 81%
    09:00 +27°C° 0.1 mm 3 mps 753 mmHg 80%
    10:00 +27°C° 0.1 mm 4 mps 753 mmHg 79%
    11:00 +28°C° 0.1 mm 4 mps 752 mmHg 78%
    12:00 +29°C° 0.1 mm 5 mps 751 mmHg 75%
    13:00 +30°C° 0.1 mm 6 mps 750 mmHg 72%
    14:00 +29°C° 0 mm 7 mps 750 mmHg 72%
    15:00 +28°C° 0.6 mm 6 mps 750 mmHg 75%
    16:00 +28°C° 0.6 mm 5 mps 749 mmHg 79%
    17:00 +27°C° 0.6 mm 5 mps 749 mmHg 83%
    18:00 +27°C° 2.1 mm 5 mps 749 mmHg 86%
    19:00 +26°C° 2.1 mm 5 mps 748 mmHg 89%
    20:00 +25°C° 2.1 mm 5 mps 748 mmHg 92%
    21:00 +26°C° 3.3 mm 5 mps 748 mmHg 93%
    22:00 +26°C° 3.3 mm 6 mps 747 mmHg 94%
    23:00 +26°C° 3.3 mm 6 mps 747 mmHg 94%

    Tomorrow, 21 August, Tuesday

    Time Temperature Precipitation Wind Pressure Humidity
    00:00 +26°C° 1.3 mm 5 mps 747 mmHg 94%
    01:00 +26°C° 1.3 mm 5 mps 747 mmHg 94%
    02:00 +26°C° 1.3 mm 4 mps 747 mmHg 94%
    03:00 +25°C° 0.2 mm 4 mps 747 mmHg 94%
    04:00 +25°C° 0.2 mm 4 mps 747 mmHg 94%
    05:00 +25°C° 0.2 mm 4 mps 747 mmHg 94%
    06:00 +25°C° 0.1 mm 4 mps 748 mmHg 95%
    07:00 +26°C° 0.1 mm 3 mps 748 mmHg 95%
    08:00 +26°C° 0.1 mm 3 mps 749 mmHg 95%
    09:00 +26°C° 0.1 mm 3 mps 749 mmHg 92%
    10:00 +27°C° 0.1 mm 3 mps 750 mmHg 89%
    11:00 +28°C° 0.1 mm 3 mps 750 mmHg 87%
    12:00 +28°C° 0 mm 3 mps 750 mmHg 84%
    13:00 +29°C° 0 mm 2 mps 750 mmHg 82%
    14:00 +30°C° 0 mm 2 mps 750 mmHg 79%
    15:00 +29°C° 0 mm 2 mps 750 mmHg 80%
    16:00 +29°C° 0 mm 2 mps 750 mmHg 82%
    17:00 +28°C° 0 mm 2 mps 750 mmHg 83%
    18:00 +27°C° 0 mm 2 mps 751 mmHg 87%
    19:00 +26°C° 0 mm 1 mps 751 mmHg 90%
    20:00 +24°C° 0 mm 1 mps 752 mmHg 93%
    21:00 +24°C° 0 mm 1 mps 752 mmHg 93%
    22:00 +23°C° 0 mm 1 mps 752 mmHg 93%
    23:00 +21°C° 0 mm 0 mps 752 mmHg 93%

    Day after tomorrow, 22 August, Wednesday

    Time Temperature Precipitation Wind Pressure Humidity
    00:00 +21°C° 0 mm 0 mps 752 mmHg 93%
    01:00 +21°C° 0 mm 0 mps 752 mmHg 93%
    02:00 +20°C° 0 mm 0 mps 752 mmHg 94%
    03:00 +20°C° 0 mm 0 mps 752 mmHg 94%
    04:00 +20°C° 0 mm 0 mps 753 mmHg 94%
    05:00 +20°C° 0 mm 0 mps 753 mmHg 94%
    06:00 +24°C° 0 mm 1 mps 753 mmHg 90%
    07:00 +25°C° 0 mm 1 mps 753 mmHg 86%
    08:00 +27°C° 0 mm 1 mps 753 mmHg 82%
    09:00 +28°C° 0 mm 1 mps 753 mmHg 76%
    10:00 +30°C° 0 mm 1 mps 753 mmHg 69%
    11:00 +31°C° 0 mm 1 mps 753 mmHg 62%
    12:00 +32°C° 0 mm 1 mps 753 mmHg 59%
    13:00 +33°C° 0 mm 1 mps 752 mmHg 56%
    14:00 +33°C° 0 mm 1 mps 752 mmHg 53%
    15:00 +32°C° 0 mm 2 mps 752 mmHg 59%
    16:00 +32°C° 0 mm 2 mps 751 mmHg 66%
    17:00 +31°C° 0 mm 2 mps 751 mmHg 72%
    18:00 +29°C° 0 mm 2 mps 751 mmHg 76%
    19:00 +28°C° 0 mm 2 mps 751 mmHg 80%
    20:00 +26°C° 0 mm 1 mps 751 mmHg 85%
    21:00 +26°C° 0.3 mm 2 mps 751 mmHg 85%
    22:00 +26°C° 0.3 mm 2 mps 752 mmHg 84%
    23:00 +26°C° 0.3 mm 2 mps 752 mmHg 84%

    23 August, Thursday

    Time Temperature Precipitation Wind Pressure Humidity
    00:00 +25°C° 1 mm 2 mps 751 mmHg 87%
    01:00 +25°C° 1 mm 2 mps 751 mmHg 89%
    02:00 +25°C° 1 mm 2 mps 751 mmHg 91%
    03:00 +25°C° 2.4 mm 2 mps 751 mmHg 92%
    04:00 +25°C° 2.4 mm 2 mps 750 mmHg 93%
    05:00 +24°C° 2.4 mm 2 mps 750 mmHg 94%
    06:00 +25°C° 2.3 mm 3 mps 750 mmHg 93%
    07:00 +25°C° 2.3 mm 3 mps 750 mmHg 93%
    08:00 +25°C° 2.3 mm 3 mps 750 mmHg 92%
    09:00 +26°C° 2.4 mm 3 mps 750 mmHg 92%
    10:00 +26°C° 2.4 mm 3 mps 750 mmHg 91%
    11:00 +27°C° 2.4 mm 4 mps 749 mmHg 91%
    12:00 +27°C° 1.2 mm 4 mps 749 mmHg 89%
    13:00 +28°C° 1.2 mm 4 mps 748 mmHg 88%
    14:00 +28°C° 1.2 mm 5 mps 748 mmHg 86%
    15:00 +28°C° 0.7 mm 5 mps 748 mmHg 88%
    16:00 +27°C° 0.7 mm 5 mps 747 mmHg 89%
    17:00 +27°C° 0.7 mm 5 mps 747 mmHg 91%
    18:00 +26°C° 1.5 mm 5 mps 747 mmHg 92%
    19:00 +26°C° 1.5 mm 5 mps 746 mmHg 93%
    20:00 +25°C° 1.5 mm 5 mps 746 mmHg 93%
    21:00 +25°C° 1.3 mm 5 mps 745 mmHg 93%
    22:00 +26°C° 1.3 mm 6 mps 744 mmHg 92%
    23:00 +26°C° 1.3 mm 6 mps 743 mmHg 91%

    24 August, Friday

    Time Temperature Precipitation Wind Pressure Humidity
    00:00 +26°C° 0.2 mm 6 mps 742 mmHg 91%
    01:00 +26°C° 0.2 mm 6 mps 740 mmHg 90%
    02:00 +26°C° 0.2 mm 6 mps 739 mmHg 89%
    03:00 +24°C° 0.5 mm 7 mps 738 mmHg 89%
    04:00 +24°C° 0.5 mm 7 mps 737 mmHg 90%
    05:00 +24°C° 0.5 mm 8 mps 736 mmHg 90%
    06:00 +24°C° 1.7 mm 7 mps 736 mmHg 91%
    07:00 +24°C° 1.7 mm 7 mps 736 mmHg 91%
    08:00 +23°C° 1.7 mm 7 mps 736 mmHg 92%
    09:00 +23°C° 3.1 mm 7 mps 736 mmHg 92%
    10:00 +23°C° 3.1 mm 7 mps 737 mmHg 93%
    11:00 +23°C° 3.1 mm 7 mps 737 mmHg 93%
    12:00 +23°C° 1.2 mm 6 mps 738 mmHg 93%
    13:00 +23°C° 1.2 mm 5 mps 738 mmHg 94%
    14:00 +23°C° 1.2 mm 5 mps 739 mmHg 94%
    15:00 +23°C° 0.3 mm 5 mps 739 mmHg 94%
    16:00 +23°C° 0.3 mm 4 mps 740 mmHg 94%
    17:00 +22°C° 0.3 mm 4 mps 740 mmHg 94%
    18:00 +22°C° 0 mm 4 mps 741 mmHg 94%
    19:00 +22°C° 0 mm 4 mps 742 mmHg 94%
    20:00 +21°C° 0 mm 4 mps 743 mmHg 94%
    21:00 +21°C° 0 mm 4 mps 743 mmHg 94%
    22:00 +21°C° 0 mm 4 mps 744 mmHg 93%
    23:00 +21°C° 0 mm 4 mps 744 mmHg 92%

    25 August, Saturday

    Time Temperature Precipitation Wind Pressure Humidity
    00:00 +21°C° 0.1 mm 4 mps 744 mmHg 92%
    01:00 +21°C° 0.1 mm 4 mps 745 mmHg 92%
    02:00 +21°C° 0.1 mm 4 mps 745 mmHg 92%
    03:00 +21°C° 0.1 mm 4 mps 746 mmHg 91%
    04:00 +21°C° 0.1 mm 4 mps 746 mmHg 91%
    05:00 +21°C° 0.1 mm 4 mps 747 mmHg 90%
    06:00 +21°C° 0.1 mm 4 mps 747 mmHg 89%
    07:00 +22°C° 0.1 mm 4 mps 748 mmHg 88%
    08:00 +22°C° 0.1 mm 4 mps 748 mmHg 87%
    09:00 +23°C° 0.3 mm 5 mps 748 mmHg 84%
    10:00 +24°C° 0.3 mm 6 mps 749 mmHg 80%
    11:00 +24°C° 0.3 mm 7 mps 749 mmHg 77%
    12:00 +26°C° 0.3 mm 7 mps 749 mmHg 76%
    13:00 +26°C° 0.3 mm 7 mps 749 mmHg 75%
    14:00 +26°C° 0.3 mm 7 mps 749 mmHg 75%
    15:00 +26°C° 0.3 mm 6 mps 749 mmHg 78%
    16:00 +25°C° 0.3 mm 5 mps 750 mmHg 81%
    17:00 +23°C° 0.3 mm 5 mps 750 mmHg 84%
    18:00 +22°C° 0.1 mm 4 mps 750 mmHg 87%
    19:00 +21°C° 0.1 mm 3 mps 751 mmHg 90%
    20:00 +20°C° 0.1 mm 3 mps 751 mmHg 92%
    21:00 +20°C° 0 mm 2 mps 752 mmHg 93%
    22:00 +20°C° 0 mm 2 mps 752 mmHg 93%
    23:00 +19°C° 0 mm 2 mps 752 mmHg 94%
    Show more